Regional Weather Roundup
Issued by NWS

Home | Current Version | Previous Version | Text Only | Print | Product List | Glossary Off
Versions: 1 2 3 4 5 6 7 8 9 10 11 12 13 14 15 16 17 18 19 20 21 22 23 24 25 26 27 28 29 30 31 32 33 34 35 36 37 38 39 40 41 42 43 44 45 46 47 48 49 50

000
ASUS43 KMKX 270900
RWRWI

WISCONSIN REGIONAL WEATHER ROUNDUP
NATIONAL WEATHER SERVICE MILWAUKEE/SULLIVAN WI
400 AM CDT MON MAR 27 2017

NOTE: "FAIR" INDICATES FEW OR NO CLOUDS BELOW 12,000 FEET WITH NO
SIGNIFICANT WEATHER AND/OR OBSTRUCTIONS TO VISIBILITY.

WIZ001-002-006>008-014>016-023>028-271000-
NORTHWEST WISCONSIN

CITY           SKY/WX    TMP DP  RH WIND       PRES   REMARKS
SUPERIOR ARPT  CLOUDY    32  32 100 CALM      29.96S FOG
ASHLAND        CLOUDY    33  31  92 CALM      29.94S
HAYWARD        CLOUDY    35  32  88 VRB3      29.93R
SIREN          CLOUDY    34  34  98 CALM      29.94S
CUMBERLAND     DRIZZLE   32  32 100 NW5       29.93R WCI  27
RICE LAKE      DRIZZLE   35  34  98 CALM      29.94R
CHETEK         CLOUDY    35  34  97 CALM      29.92R
LADYSMITH      CLOUDY    35  33  93 NW6       29.92R WCI  30
EAU CLAIRE     NOT AVBL
MENOMONIE      CLOUDY    38  37  97 NW6       29.92S FOG     WCI  33
NEW RICHMOND   CLOUDY    35  35 100 N5        29.93S WCI  31
OSCEOLA        LGT RAIN  36  36 100 N3        29.96S
$$

WIZ003>005-009-010-017-018-271000-
NORTH CENTRAL WISCONSIN

CITY           SKY/WX    TMP DP  RH WIND       PRES   REMARKS
MANITOWISH WTR CLOUDY    31  31 100 NW3       29.87S
ARBOR VITAE    CLOUDY    34  33  96 N5        29.86R WCI  30
WOODRUFF       CLOUDY    34  33  96 N5        29.86R WCI  30
RHINELANDER    CLOUDY    34  33  96 N5        29.87R WCI  30
EAGLE RIVER    CLOUDY    32  32 100 N8        29.85R WCI  25
LAND O LAKES   CLOUDY    32  32 100 N7        29.87S WCI  26
PHILLIPS       CLOUDY    32  32 100 NW3       29.88R
TOMAHAWK       CLOUDY    32  32  98 NW3       29.88R
MEDFORD        CLOUDY    34  34  99 NW3       29.87S
MERRILL        CLOUDY    35  35 100 NW3       29.88R
$$

WIZ029-030-035-036-043>047-271000-
CENTRAL WISCONSIN

CITY           SKY/WX    TMP DP  RH WIND       PRES   REMARKS
WAUSAU         CLOUDY    37  37 100 NW3       29.86S
MOSINEE        CLOUDY    36  36 100 NW3       29.88S
MARSHFIELD     CLOUDY    38  37  97 W3        29.87S
STEVENS POINT  CLOUDY    37  37 100 W3        29.89R FOG
WAUPACA        FOG       39  38  96 SW3       29.89R VSB 3/4
WAUTOMA        CLOUDY    39  39 100 CALM      29.89S FOG
WISC RAPIDS    CLOUDY    39  39 100 CALM      29.89S FOG
CAMP DOUGLAS   CLOUDY    39  39 100 W3        29.89S
$$

WIZ011>013-019>022-031-037>040-048>050-271000-
NORTHEAST WISCONSIN

CITY           SKY/WX    TMP DP  RH WIND       PRES   REMARKS
ANTIGO         CLOUDY    34  34 100 NW5       29.86R FOG     WCI  30
SHAWANO        CLOUDY    38  37  94 CALM      29.87S
OCONTO         CLOUDY    36  35  98 W6        29.87R WCI  31
STURGEON BAY   FOG       35  35 100 W5        29.86S VSB 1/2 WCI  31
GREEN BAY      CLOUDY    38  38 100 W5        29.88R WCI  34
MANITOWOC      NOT AVBL
APPLETON       CLOUDY    36  36 100 W5        29.86R WCI  32
CLINTONVILLE   CLOUDY    36  36 100 W3        29.88R
OSHKOSH        CLOUDY    38  37  97 W3        29.88R
$$

WIZ032>034-041-042-053>061-271000-
SOUTHWEST WISCONSIN

CITY           SKY/WX    TMP DP  RH WIND       PRES   REMARKS
LA CROSSE      CLOUDY    42  41  96 CALM      29.91R
SPARTA         CLOUDY    39  39 100 CALM      29.90F FOG
VIROQUA        CLOUDY    39  39 100 W3        29.89S VSB 3/4
BOSCOBEL       CLOUDY    42  41  96 CALM      29.91S FOG
PRAIRIE DU CHI CLOUDY    42  39  92 CALM      29.90S
PLATTEVILLE    CLOUDY    42  42 100 NW3       29.90S VSB 1/2
$$

WIZ056-057-062-063-064-067-068-271000-
SOUTH CENTRAL WISCONSIN

CITY           SKY/WX    TMP DP  RH WIND       PRES   REMARKS
REEDSBURG      CLOUDY    39  39 100 CALM      29.89F
BARABOO/DELLS  CLOUDY    39  38  98 CALM      29.89F FOG
LONE ROCK      CLOUDY    42  40  92 SW3       29.91R FOG
MINERAL POINT  FOG       43  43 100 CALM      29.90R VSB 1/4
MADISON        CLOUDY    40  39  97 CALM      29.89F
MIDDLETON      CLOUDY    42  42 100 NW5       29.88F
WATERTOWN      CLOUDY    40  40 100 NW5       29.89S
MONROE         FOG       41  41 100 CALM      29.89S VSB 1/2
JANESVILLE     CLOUDY    43  43 100 CALM      29.89S FOG
$$

WIZ051-052-058>065-066-070>072-271000-
SOUTHEAST WISCONSIN

CITY           SKY/WX    TMP DP  RH WIND       PRES   REMARKS
MILWAUKEE      CLOUDY    44  39  82 NW7       29.89R
WAUKESHA       CLOUDY    37  37 100 W8        29.90S WCI  31
MILWAUKEE/TIMM CLOUDY    41  37  87 W7        29.89S
RACINE         CLOUDY    44  40  85 NW6       29.90S
KENOSHA        CLOUDY    44  42  93 NW6       29.88F
FOND DU LAC    CLOUDY    39  36  89 NW3       29.88F
SHEBOYGAN      CLOUDY    38  36  92 W5        29.88R WCI  34
WEST BEND      CLOUDY    37  37 100 NW6       29.87F WCI  33
JUNEAU         CLOUDY    38  38  98 W5        29.90S WCI  35
$$

LSZ147-162-271000-
LAKE SUPERIOR

STATION/POSITION TIME  TEMP    WIND        PRES    WAVE
                       AIR SEA DIR/SP/G            HT/PER
                 (UTC) (F)     (DEG/KT/KT) (MB)    (FT/S)
DEVILS ISLAND    0800   33     290/  5/  6 1014.5F
PORT WING        0840   33     220/  1/  2 1014.2S
SAXON HARBOR     0830   33     330/  7/  8 1013.5S
$$

LMZ867-665-643>646-271000-
LAKE MICHIGAN

STATION/POSITION TIME  TEMP    WIND        PRES    WAVE
                       AIR SEA DIR/SP/G            HT/PER
                 (UTC) (F)     (DEG/KT/KT) (MB)    (FT/S)
CHAMBERS ISLAND  0840   34     320/  4/  7 1010.5S
NORTHPORT PIER   0840   33     310/  4/  5 1010.5F
SISTER BAY       0806   34        CALM       N/A
KEWAUNEE LAKESHO 0830   36     280/  3/  6 1011.0R
SHEBOYGAN LAKESH 0800   38      10/  6/  7 1011.5F
PORT WASHINGTON  0840   41     280/  6/  8 1012.9S
MILWAUKEE LAKESH 0830   42     290/  7/  8   N/A
KENOSHA   LAKESH 0800   42     220/  2/  4 1012.5
$$

TC  - TEMPERATURE IN CELSIUS
VSB - VISIBILITY IN STATUTE MILES
WCI - WIND CHILL INDEX
HX  - HEAT INDEX





USA.gov is the U.S. government's official web portal to all federal, state and local government web resources and services.